This demonstration page uses our WeatherBlox Daily Observations layout. Learn more.

Left ArrowRight Arrow

Hourly Observations for August 10, 2020

Temp ( °F °C ) Dew Point ( °F °C ) Humidity (%) Winds ( mph kmh ) Pressure ( in mb ) Visibility ( mi km ) Precip ( " mm )
12:53 am 00:53 Clear 69 20.6 67 19.4 93 93 N N/A 30.06 1018 7 11.26538 N/A
1:53 am 01:53 Clear 68 20 66 18.9 93 93 N N/A 30.06 1018 7 11.26538 N/A
2:53 am 02:53 Clear 68 20 67 19.4 96 96 N N/A 30.06 1018 7 11.26538 N/A
3:53 am 03:53 Clear 68 20 66 18.9 93 93 N N/A 30.07 1018 7 11.26538 N/A
4:44 am 04:44 Clear with Mist and Fog 66 18.9 65 18.3 96 96 N N/A 30.07 1018 1.75 2.816345 N/A
4:46 am 04:46 Mostly Cloudy with Mist and Fog 66 18.9 65 18.3 96 96 N N/A 30.07 1018 0.75 1.207005 N/A
4:53 am 04:53 Mostly Cloudy with Fog 66 18.9 65 18.3 96 96 ESE 3 6 30.06 1018 0.5 0.80467 N/A
4:57 am 04:57 Clear with Mist and Fog 66 18.9 65 18.3 96 96 ESE 3 6 30.07 1018 1 1.60934 N/A
5:00 am 05:00 Clear with Mist and Fog 67 19.4 66 18.9 97 97 E 3 6 30.07 1018 3 4.82802 N/A
5:53 am 05:53 Clear with Mist and Fog 66 18.9 64 17.8 93 93 N N/A 30.05 1018 4 6.43736 N/A
6:49 am 06:49 Sunny with Mist and Fog 66 19 64 18 94 94 N N/A 30.05 1018 1.75 2.816345 N/A
6:53 am 06:53 Sunny with Mist and Fog 66 18.9 64 17.8 93 93 N N/A 30.05 1018 1.75 2.816345 N/A
7:02 am 07:02 Sunny with Mist and Fog 65 18.3 64 17.8 97 97 N N/A 30.05 1018 2 3.21868 N/A
7:12 am 07:12 Sunny with Mist and Fog 66 18.9 64 17.8 93 93 N N/A 30.05 1018 4 6.43736 N/A
7:53 am 07:53 Sunny with Mist and Fog 70 21.1 68 20 93 93 N N/A 30.06 1018 6 9.65604 N/A
8:53 am 08:53 Sunny 76 24.4 70 21.1 82 82 VRB 3 6 30.07 1018 10 16.0934 N/A
9:53 am 09:53 Mostly Cloudy 77 25 70 21.1 79 79 VRB 6 9 30.08 1019 10 16.0934 N/A
10:00 am 10:00 Mostly Cloudy 77 25 70 21.1 79 79 SW 7 11 30.06 1018 10 16.0934 N/A
10:30 am 10:30 Mostly Cloudy 75 23.9 70 21.1 84 84 N N/A 30.07 1018 10 16.0934 N/A
10:53 am 10:53 Mostly Sunny 75 23.9 70 21.1 84 84 VRB 3 6 30.07 1018 10 16.0934 N/A
11:53 am 11:53 Cloudy with Light Rain 74 23.3 70 21.1 88 88 SSW 5 7 30.06 1018 10 16.0934 0.01 0.254
12:53 pm 12:53 Partly Cloudy 76 24.4 72 22.2 88 88 N N/A 30.04 1017 10 16.0934 0.001 0.001
1:32 pm 13:32 Mostly Cloudy 79 26.1 72 22.2 79 79 E 6 9 30.01 1016 10 16.0934 N/A
1:47 pm 13:47 Partly Cloudy 81 27 72 22 74 74 VRB 5 7 30.01 1016 10 16.0934 N/A
1:53 pm 13:53 Partly Cloudy 80 26.7 72 22.2 76 76 VRB 5 7 30.03 1017 10 16.0934 N/A
2:34 pm 14:34 Mostly Cloudy 82 27.8 72 22.2 72 72 VRB 3 6 30 1016 10 16.0934 N/A
2:44 pm 14:44 Partly Cloudy 83 28.3 72 22.2 70 70 undefined N/A 30 1016 10 16.0934 N/A
2:53 pm 14:53 Mostly Sunny 85 29.4 72 22.2 65 65 VRB 5 7 30.01 1016 10 16.0934 N/A
3:53 pm 15:53 Sunny 85 29.4 69 20.6 59 59 N N/A 29.97 1015 10 16.0934 N/A
4:53 pm 16:53 Mostly Sunny 85 29.4 70 21.1 61 61 VRB 6 9 29.94 1014 10 16.0934 N/A
5:53 pm 17:53 Mostly Sunny 85 29.4 71 21.7 63 63 SSW 7 11 29.93 1014 10 16.0934 N/A
6:53 pm 18:53 Sunny 85 29.4 71 21.7 63 63 VRB 3 6 29.93 1013 10 16.0934 N/A
7:53 pm 19:53 Mostly Cloudy 80 26.7 72 22.2 76 76 N N/A 29.92 1013 10 16.0934 N/A
8:53 pm 20:53 Mostly Cloudy 80 26.7 71 21.7 74 74 VRB 5 7 29.93 1014 10 16.0934 N/A
9:53 pm 21:53 Cloudy 80 26.7 71 21.7 74 74 N N/A 29.94 1014 10 16.0934 N/A
10:04 pm 22:04 Cloudy with Nearby Thunderstorms 79 26.1 71 21.7 77 77 WNW 3 6 29.94 1014 10 16.0934 N/A
10:21 pm 22:21 Cloudy with Heavy Thunderstorms 73 22.8 67 19.4 81 81 N 10 17 30.01 1016 5 8.0467 0.04 1.016
10:45 pm 22:45 Cloudy with Nearby Thunderstorms 70 21.1 68 20 93 93 NNE 8 13 30 1016 8 12.87472 0.11 2.794
10:53 pm 22:53 Mostly Cloudy with Nearby Thunderstorms 70 21.1 67 19.4 90 90 NNE 5 7 30.01 1016 10 16.0934 0.11 2.794
11:03 pm 23:03 Mostly Cloudy with Light Rain 71 21.7 67 19.4 87 87 N 6 9 30.01 1016 10 16.0934 0.001 0.001
11:53 pm 23:53 Cloudy with Rain 70 21.1 68 20 93 93 N N/A 30.03 1017 4 6.43736 0.05 1.27

Powered by AerisWeather